Location: NJAA Observatory
(40.6819°N, 74.8979°W)
Time: 02:47:00
(UTC-04:00)

Courier 1B - All Passes

Search period start: 07 July 2015 00:00
Search period end: 17 July 2015 00:00
Orbit: 963 x 1209 km, 28.3° (Epoch: 06 July)

Date Brightness Start Highest point End Pass type
(mag) Time Alt. Az. Time Alt. Az. Time Alt. Az.
07 Jul - 01:44:51 10° S 01:48:11 13° SSE 01:51:46 10° SE visible
07 Jul - 03:35:16 10° SW 03:41:32 27° SSE 03:47:45 10° ESE visible
07 Jul - 05:28:21 10° WSW 05:35:03 32° S 05:41:31 10° ESE daylight
07 Jul - 07:22:37 10° WSW 07:28:29 24° SSW 07:34:01 10° SE daylight
08 Jul - 02:41:57 10° SSW 02:47:50 24° SSE 02:53:46 10° ESE visible
08 Jul - 04:34:34 10° WSW 04:41:20 32° S 04:47:55 10° ESE visible
08 Jul - 06:28:31 10° WSW 06:34:49 27° SSW 06:40:51 10° SE daylight
08 Jul - 08:24:22 10° SW 08:28:03 14° SSW 08:31:23 10° S daylight
09 Jul - 01:48:53 10° SSW 01:54:09 20° SSE 01:59:34 10° ESE visible
09 Jul - 03:40:54 10° SW 03:47:35 31° S 03:54:12 10° ESE visible
09 Jul - 05:34:32 10° WSW 05:41:08 30° S 05:47:31 10° SE daylight
09 Jul - 07:29:33 10° WSW 07:34:28 18° SSW 07:39:05 10° SSE daylight
10 Jul - 00:56:10 10° S 01:00:29 16° SSE 01:05:03 10° ESE visible
10 Jul - 02:47:22 10° SW 02:53:51 29° S 03:00:22 10° ESE visible
10 Jul - 04:40:39 10° WSW 04:47:25 32° S 04:54:01 10° SE visible
10 Jul - 06:35:09 10° WSW 06:40:50 22° SSW 06:46:16 10° SSE daylight
11 Jul - 00:04:08 10° S 00:06:51 12° SSE 00:09:54 10° SE night (unlit)
11 Jul - 01:53:59 10° SW 02:00:08 26° SSE 02:06:24 10° ESE visible
11 Jul - 03:46:52 10° WSW 03:53:40 33° S 04:00:25 10° ESE visible
11 Jul - 05:40:58 10° WSW 05:47:10 26° SSW 05:53:10 10° SE daylight
11 Jul - 07:37:47 10° SW 07:40:24 12° SSW 07:42:41 10° S daylight
12 Jul - 01:00:49 10° SSW 01:06:27 23° SSE 01:12:17 10° ESE visible
12 Jul - 02:53:12 10° SW 02:59:55 32° S 03:06:42 10° ESE visible
12 Jul - 04:46:57 10° WSW 04:53:29 29° S 04:59:52 10° SE visible
12 Jul - 06:42:25 10° WSW 06:46:48 16° SSW 06:50:54 10° S daylight
13 Jul - 00:07:55 10° SSW 00:12:48 19° SSE 00:17:56 10° ESE night (unlit)
13 Jul - 01:59:38 10° SW 02:06:10 31° S 02:12:51 10° ESE visible
13 Jul - 03:53:04 10° WSW 03:59:44 31° S 04:06:23 10° SE visible
13 Jul - 05:47:49 10° WSW 05:53:10 20° SSW 05:58:18 10° SSE daylight
13 Jul - 23:15:27 10° S 23:19:11 15° SSE 23:23:13 10° ESE night (unlit)
14 Jul - 01:06:13 10° SW 01:12:27 28° SSE 01:18:54 10° ESE visible
14 Jul - 02:59:16 10° WSW 03:06:00 32° S 03:12:47 10° ESE visible
14 Jul - 04:53:33 10° WSW 04:59:29 23° SSW 05:05:17 10° SSE visible
14 Jul - 22:24:11 10° SSE 22:25:37 11° SSE 22:27:22 10° SE visible
15 Jul - 00:13:00 10° SW 00:18:46 25° SSE 00:24:50 10° ESE night (unlit)
15 Jul - 02:05:36 10° WSW 02:12:15 33° S 02:19:03 10° ESE visible
15 Jul - 03:59:29 10° WSW 04:05:47 27° SSW 04:12:02 10° SE visible
15 Jul - 05:55:39 10° SW 05:59:07 13° SSW 06:02:17 10° S daylight
15 Jul - 23:19:58 10° SSW 23:25:09 21° SSE 23:30:36 10° ESE visible
16 Jul - 01:12:03 10° SW 01:18:31 32° S 01:25:12 10° ESE visible
16 Jul - 03:05:36 10° WSW 03:12:04 29° S 03:18:35 10° SE visible
16 Jul - 05:00:43 10° WSW 05:05:28 17° SSW 05:10:01 10° SSE visible
16 Jul - 22:27:17 10° SSW 22:31:33 17° SSE 22:36:07 10° ESE visible
